Location: Ermatingen
(47.6706°N, 9.0857°E)
Time: 01:21:00
(UTC+00:00)

Cosmos 1428 Rocket - Pass Details

Date: 04 December 2021
Orbit: 949 x 987 km, 82.9° (Epoch: 17 January)

Event Time Altitude Azimuth Distance (km) Brightness Sun altitude
Rises 06:00:44 0° 187° (S) 3,631 7.7 -8.8°
Reaches altitude 10° 06:03:14 10° 187° (S) 2,684 7.0 -8.5°
Maximum altitude 06:09:22 89° 266° (W) 961 4.5 -7.5°
Drops below altitude 10° 06:15:32 10° 9° (N) 2,685 6.6 -6.6°
Sets 06:18:02 0° 10° (N) 3,633 7.3 -6.2°
